• en France
  • Liste des pays
  • À 7 jours
  • Température de l'eau
  • Carte satellitaire
  • Carte météo
  • Widgets météo
  • user-avatar
    Se connecter

    Météo par heure à Budapest

    Ce jour, 18 Octobre, Jeudi

    Heure Température Précipitation Vent Pression Humidité
    00:00 +16°C° 0 mm 1 m/s 756 mmHg 40%
    01:00 +16°C° 0 mm 2 m/s 756 mmHg 42%
    02:00 +15°C° 0 mm 1 m/s 756 mmHg 43%
    03:00 +15°C° 0 mm 1 m/s 755 mmHg 43%
    04:00 +15°C° 0 mm 1 m/s 755 mmHg 44%
    05:00 +15°C° 0 mm 1 m/s 755 mmHg 44%
    06:00 +15°C° 0 mm 1 m/s 755 mmHg 44%
    07:00 +15°C° 0 mm 1 m/s 756 mmHg 43%
    08:00 +16°C° 0 mm 1 m/s 756 mmHg 41%
    09:00 +19°C° 0 mm 1 m/s 755 mmHg 38%
    10:00 +20°C° 0 mm 1 m/s 755 mmHg 36%
    11:00 +21°C° 0 mm 1 m/s 755 mmHg 35%
    12:00 +22°C° 0 mm 1 m/s 755 mmHg 34%
    13:00 +23°C° 0 mm 1 m/s 755 mmHg 34%
    14:00 +22°C° 0 mm 1 m/s 755 mmHg 35%
    15:00 +22°C° 0 mm 1 m/s 754 mmHg 36%
    16:00 +21°C° 0 mm 1 m/s 754 mmHg 37%
    17:00 +21°C° 0 mm 1 m/s 754 mmHg 38%
    18:00 +20°C° 0 mm 1 m/s 754 mmHg 38%
    19:00 +19°C° 0 mm 1 m/s 754 mmHg 38%
    20:00 +19°C° 0 mm 1 m/s 755 mmHg 39%
    21:00 +19°C° 0 mm 1 m/s 755 mmHg 40%
    22:00 +18°C° 0 mm 1 m/s 755 mmHg 41%
    23:00 +18°C° 0 mm 1 m/s 755 mmHg 44%

    Demain, 19 Octobre, Vendredi

    Heure Température Précipitation Vent Pression Humidité
    00:00 +16°C° 0 mm 1 m/s 755 mmHg 46%
    01:00 +15°C° 0 mm 1 m/s 755 mmHg 49%
    02:00 +15°C° 0.3 mm 1 m/s 755 mmHg 52%
    03:00 +15°C° 0.3 mm 1 m/s 755 mmHg 55%
    04:00 +15°C° 0.3 mm 1 m/s 755 mmHg 57%
    05:00 +15°C° 0.3 mm 1 m/s 755 mmHg 59%
    06:00 +15°C° 0.3 mm 1 m/s 756 mmHg 60%
    07:00 +15°C° 0.3 mm 1 m/s 756 mmHg 61%
    08:00 +16°C° 0.1 mm 1 m/s 756 mmHg 58%
    09:00 +18°C° 0.1 mm 1 m/s 756 mmHg 54%
    10:00 +19°C° 0.1 mm 1 m/s 756 mmHg 51%
    11:00 +20°C° 0.1 mm 1 m/s 756 mmHg 50%
    12:00 +20°C° 0.1 mm 1 m/s 756 mmHg 49%
    13:00 +20°C° 0.1 mm 2 m/s 756 mmHg 48%
    14:00 +20°C° 0 mm 2 m/s 756 mmHg 50%
    15:00 +20°C° 0 mm 1 m/s 756 mmHg 52%
    16:00 +20°C° 0 mm 1 m/s 756 mmHg 54%
    17:00 +19°C° 0 mm 1 m/s 756 mmHg 56%
    18:00 +18°C° 0 mm 1 m/s 757 mmHg 59%
    19:00 +16°C° 0 mm 1 m/s 757 mmHg 62%
    20:00 +16°C° 0 mm 1 m/s 757 mmHg 63%
    21:00 +15°C° 0 mm 1 m/s 757 mmHg 64%
    22:00 +15°C° 0 mm 1 m/s 758 mmHg 64%
    23:00 +15°C° 0 mm 1 m/s 758 mmHg 66%

    Après-demain, 20 Octobre, Samedi

    Heure Température Précipitation Vent Pression Humidité
    00:00 +14°C° 0 mm 1 m/s 758 mmHg 67%
    01:00 +14°C° 0 mm 1 m/s 758 mmHg 69%
    02:00 +14°C° 0 mm 1 m/s 758 mmHg 69%
    03:00 +14°C° 0 mm 1 m/s 758 mmHg 70%
    04:00 +14°C° 0 mm 2 m/s 758 mmHg 71%
    05:00 +14°C° 0 mm 2 m/s 758 mmHg 73%
    06:00 +13°C° 0 mm 2 m/s 759 mmHg 75%
    07:00 +13°C° 0 mm 2 m/s 759 mmHg 76%
    08:00 +15°C° 0 mm 2 m/s 759 mmHg 69%
    09:00 +17°C° 0 mm 2 m/s 759 mmHg 61%
    10:00 +19°C° 0 mm 2 m/s 760 mmHg 54%
    11:00 +20°C° 0 mm 2 m/s 760 mmHg 51%
    12:00 +21°C° 0 mm 3 m/s 759 mmHg 48%
    13:00 +21°C° 0 mm 3 m/s 759 mmHg 44%
    14:00 +21°C° 0 mm 3 m/s 759 mmHg 46%
    15:00 +21°C° 0 mm 3 m/s 759 mmHg 48%
    16:00 +20°C° 0 mm 3 m/s 759 mmHg 49%
    17:00 +19°C° 0 mm 3 m/s 759 mmHg 54%
    18:00 +18°C° 0 mm 3 m/s 760 mmHg 58%
    19:00 +16°C° 0 mm 3 m/s 760 mmHg 62%
    20:00 +16°C° 0 mm 3 m/s 760 mmHg 64%
    21:00 +14°C° 0 mm 3 m/s 760 mmHg 65%
    22:00 +15°C° 0 mm 2 m/s 760 mmHg 66%
    23:00 +14°C° 0 mm 2 m/s 761 mmHg 67%

    21 Octobre, Dimanche

    Heure Température Précipitation Vent Pression Humidité
    00:00 +14°C° 0 mm 2 m/s 761 mmHg 68%
    01:00 +13°C° 0 mm 2 m/s 761 mmHg 69%
    02:00 +13°C° 0 mm 2 m/s 761 mmHg 70%
    03:00 +13°C° 0 mm 2 m/s 761 mmHg 71%
    04:00 +12°C° 0 mm 2 m/s 761 mmHg 71%
    05:00 +12°C° 0 mm 2 m/s 761 mmHg 71%
    06:00 +12°C° 0 mm 2 m/s 761 mmHg 70%
    07:00 +12°C° 0 mm 2 m/s 761 mmHg 69%
    08:00 +12°C° 0 mm 3 m/s 761 mmHg 64%
    09:00 +13°C° 0 mm 3 m/s 761 mmHg 59%
    10:00 +13°C° 0 mm 3 m/s 761 mmHg 53%
    11:00 +14°C° 0 mm 3 m/s 761 mmHg 50%
    12:00 +16°C° 0 mm 3 m/s 760 mmHg 47%
    13:00 +16°C° 0 mm 3 m/s 760 mmHg 43%
    14:00 +16°C° 0 mm 3 m/s 760 mmHg 45%
    15:00 +16°C° 0 mm 3 m/s 759 mmHg 46%
    16:00 +14°C° 0 mm 3 m/s 759 mmHg 47%
    17:00 +13°C° 0 mm 3 m/s 759 mmHg 51%
    18:00 +13°C° 0 mm 2 m/s 759 mmHg 56%
    19:00 +12°C° 0 mm 2 m/s 759 mmHg 60%
    20:00 +12°C° 0 mm 2 m/s 759 mmHg 60%
    21:00 +12°C° 0 mm 2 m/s 760 mmHg 60%
    22:00 +10°C° 0 mm 2 m/s 760 mmHg 60%
    23:00 +11°C° 0 mm 1 m/s 760 mmHg 61%

    22 Octobre, Lundi

    Heure Température Précipitation Vent Pression Humidité
    00:00 +11°C° 0 mm 1 m/s 760 mmHg 61%
    01:00 +10°C° 0 mm 1 m/s 759 mmHg 62%
    02:00 +10°C° 0 mm 1 m/s 759 mmHg 63%
    03:00 +9°C° 0 mm 2 m/s 759 mmHg 64%
    04:00 +8°C° 0 mm 2 m/s 759 mmHg 65%
    05:00 +8°C° 0 mm 2 m/s 759 mmHg 65%
    06:00 +8°C° 0 mm 2 m/s 759 mmHg 64%
    07:00 +8°C° 0 mm 2 m/s 760 mmHg 64%
    08:00 +10°C° 0 mm 2 m/s 760 mmHg 58%
    09:00 +11°C° 0 mm 3 m/s 760 mmHg 52%
    10:00 +12°C° 0 mm 4 m/s 760 mmHg 46%
    11:00 +13°C° 0 mm 3 m/s 760 mmHg 42%
    12:00 +14°C° 0 mm 3 m/s 759 mmHg 39%
    13:00 +14°C° 0 mm 3 m/s 759 mmHg 35%
    14:00 +14°C° 0 mm 3 m/s 759 mmHg 36%
    15:00 +15°C° 0 mm 2 m/s 759 mmHg 36%
    16:00 +15°C° 0 mm 2 m/s 759 mmHg 37%
    17:00 +13°C° 0 mm 2 m/s 759 mmHg 40%
    18:00 +12°C° 0 mm 2 m/s 759 mmHg 44%
    19:00 +11°C° 0 mm 1 m/s 759 mmHg 47%
    20:00 +10°C° 0 mm 1 m/s 759 mmHg 50%
    21:00 +10°C° 0 mm 1 m/s 759 mmHg 53%
    22:00 +9°C° 0 mm 1 m/s 759 mmHg 55%
    23:00 +9°C° 0 mm 1 m/s 758 mmHg 58%

    23 Octobre, Mardi

    Heure Température Précipitation Vent Pression Humidité
    00:00 +8°C° 0 mm 2 m/s 758 mmHg 62%
    01:00 +7°C° 0 mm 2 m/s 758 mmHg 65%
    02:00 +7°C° 0.1 mm 2 m/s 757 mmHg 68%
    03:00 +7°C° 0.1 mm 2 m/s 757 mmHg 71%
    04:00 +7°C° 0.1 mm 2 m/s 756 mmHg 74%
    05:00 +8°C° 0.5 mm 2 m/s 756 mmHg 78%
    06:00 +8°C° 0.5 mm 3 m/s 756 mmHg 82%
    07:00 +8°C° 0.5 mm 3 m/s 756 mmHg 86%
    08:00 +9°C° 0.4 mm 3 m/s 755 mmHg 84%
    09:00 +10°C° 0.4 mm 3 m/s 755 mmHg 82%
    10:00 +10°C° 0.4 mm 3 m/s 755 mmHg 80%
    11:00 +11°C° 0 mm 4 m/s 755 mmHg 71%
    12:00 +12°C° 0 mm 5 m/s 754 mmHg 62%
    13:00 +13°C° 0 mm 5 m/s 753 mmHg 54%
    14:00 +12°C° 0 mm 5 m/s 753 mmHg 54%
    15:00 +12°C° 0 mm 5 m/s 752 mmHg 54%
    16:00 +10°C° 0 mm 5 m/s 752 mmHg 54%
    17:00 +9°C° 0 mm 5 m/s 752 mmHg 57%
    18:00 +10°C° 0 mm 4 m/s 751 mmHg 59%
    19:00 +8°C° 0 mm 4 m/s 751 mmHg 62%
    20:00 +8°C° 0 mm 3 m/s 751 mmHg 64%
    21:00 +8°C° 0 mm 3 m/s 750 mmHg 66%
    22:00 +8°C° 0 mm 3 m/s 750 mmHg 69%
    23:00 +8°C° 0.1 mm 3 m/s 750 mmHg 72%
    Voir plus